This demonstration page uses our WeatherBlox Daily Observations layout. Learn more.

Left ArrowRight Arrow

Hourly Observations for September 28, 2015

Temp ( °F °C ) Dew Point ( °F °C ) Humidity (%) Winds ( mph kmh ) Pressure ( in mb ) Visibility ( mi km ) Precip ( " mm )
12:51 am 00:51 Clear 68 20 52 11.1 57 57 E 5 7 29.79 1009 10 16.0934 0 0
1:51 am 01:51 Clear 67 19.4 52 11.1 59 59 E 5 7 29.79 1009 10 16.0934 0 0
2:51 am 02:51 Clear 66 18.9 52 11.1 61 61 S 3 6 29.79 1009 10 16.0934 0 0
3:51 am 03:51 Clear 65 18.3 53 11.7 66 66 SE 6 9 29.79 1009 10 16.0934 0 0
4:51 am 04:51 Clear 63 17.2 52 11.1 68 68 ESE 5 7 29.81 1009 10 16.0934 0 0
5:51 am 05:51 Clear 62 16.7 52 11.1 70 70 ESE 7 11 29.83 1010 10 16.0934 0 0
6:51 am 06:51 Sunny 65 18.3 51 10.6 61 61 SE 7 11 29.86 1011 10 16.0934 0 0
7:51 am 07:51 Sunny 69 20.6 50 10 51 51 Calm 29.87 1012 10 16.0934 0 0
8:51 am 08:51 Sunny 73 22.8 50 10 44 44 SSE 3 6 29.88 1012 10 16.0934 0 0
9:51 am 09:51 Sunny 80 26.7 49 9.4 34 34 Calm 29.87 1011 10 16.0934 0 0
10:51 am 10:51 Sunny 85 29.4 50 10 30 30 W 8 13 29.85 1011 10 16.0934 0 0
11:51 am 11:51 Sunny 91 32.8 49 9.4 24 24 W 14 22 29.81 1010 10 16.0934 0 0
12:51 pm 12:51 Sunny 94 34.4 46 7.8 19 19 WNW 14 22 29.78 1008 10 16.0934 0 0
1:51 pm 13:51 Sunny 95 35 43 6.1 17 17 NW 13 20 29.75 1007 10 16.0934 0 0
2:51 pm 14:51 Sunny 96 35.6 42 5.6 15 15 NW 14 22 29.73 1007 10 16.0934 0 0
3:51 pm 15:51 Sunny 95 35 43 6.1 17 17 WNW 16 26 29.73 1007 10 16.0934 0 0
4:51 pm 16:51 Sunny 93 33.9 40 4.4 16 16 W 15 24 29.74 1007 10 16.0934 0 0
5:51 pm 17:51 Sunny 87 30.6 44 6.7 22 22 W 10 17 29.75 1008 10 16.0934 0 0
6:51 pm 18:51 Clear 80 26.7 49 9.4 34 34 NNW 9 15 29.77 1008 10 16.0934 0 0
7:51 pm 19:51 Clear 81 27.2 48 8.9 32 32 NW 10 17 29.79 1009 10 16.0934 0 0
8:51 pm 20:51 Clear 79 26.1 50 10 36 36 WNW 9 15 29.8 1009 10 16.0934 0 0
9:51 pm 21:51 Clear 77 25 50 10 39 39 NW 9 15 29.79 1009 10 16.0934 0 0
10:51 pm 22:51 Clear 73 22.8 51 10.6 46 46 WNW 8 13 29.8 1009 10 16.0934 0 0
11:51 pm 23:51 Clear 73 22.8 50 10 44 44 NW 8 13 29.78 1009 10 16.0934 0 0

Powered by AerisWeather